Hazlehurst, GA

10:31 PM EST on February 07, 2016 (GMT -0500)
Hazlehurst

Weather History for KAZE - October, 2012

Change the Weather History Date:

Saturday, October 20, 2012

  Actual Average Record
Temperature  
Mean Temperature 61 °F -  
Max Temperature 73 °F 80 °F 79 °F (2014)
Min Temperature 49 °F 58 °F 47 °F (2015)
Degree Days  
Heating Degree Days 4    
Growing Degree Days 11 (Base 50)    
Moisture  
Dew Point 48 °F    
Average Humidity 68    
Maximum Humidity 94    
Minimum Humidity 39    
Precipitation  
Precipitation 0.00 in - - ()
Sea Level Pressure  
Sea Level Pressure 29.91 in    
Wind  
Wind Speed 1 mph ()    
Max Wind Speed 9 mph    
Max Gust Speed -    
Visibility 10.0 miles    
Events      
Averages and records for this station are not official NWS values.
T = Trace of Precipitation, MM = Missing Value Source: Averaged Metar Reports

Daily Weather History Graph

Daily Weather History Graph

Search for Another Location

Airport or City:

Trip Planner

Search our weather history database for the weather conditions in past years. The results will help you decide how hot, cold, wet, or windy it might be!

Date:

Astronomy

Oct. 20, 2012 Rise Set
Actual Time 7:37 AM EDT 6:52 PM EDT
Civil Twilight 7:13 AM EDT 7:16 PM EDT
Nautical Twilight 6:44 AM EDT 7:45 PM EDT
Astronomical Twilight 6:16 AM EDT 8:13 PM EDT
Moon 1:02 PM EDT (10/20) 11:46 PM EDT (10/20)
Length of Visible Light 12h 03m
Length of Day
11h 14m
Waxing Crescent, 34% of the Moon is Illuminated
Oct 20
Waxing Crescent
Oct 21
First Quarter
Oct 29
Full
Nov 6
Last Quarter
Nov 13
New

Hourly Weather History & Observations

Time (EDT) Temp. Dew Point Humidity Pressure Visibility Wind Dir Wind Speed Gust Speed Precip Events Conditions
12:15 AM 59.0 °F 45.9 °F 62% 29.87 in 10.0 mi WSW 3.5 mph - N/A   Clear
12:35 AM 59.0 °F 46.2 °F 63% 29.87 in 10.0 mi Calm Calm - N/A   Clear
12:55 AM 58.6 °F 45.9 °F 63% 29.88 in 10.0 mi Calm Calm - N/A   Clear
1:15 AM 55.9 °F 46.6 °F 71% 29.88 in 10.0 mi Calm Calm - N/A   Clear
1:35 AM 54.9 °F 46.6 °F 74% 29.88 in 10.0 mi Calm Calm - N/A   Clear
1:55 AM 54.0 °F 46.4 °F 76% 29.88 in 10.0 mi Calm Calm - N/A   Clear
2:15 AM 53.8 °F 46.4 °F 76% 29.88 in 10.0 mi Calm Calm - N/A   Clear
2:35 AM 52.9 °F 46.6 °F 79% 29.87 in 10.0 mi Calm Calm - N/A   Clear
2:55 AM 52.5 °F 46.4 °F 80% 29.87 in 10.0 mi Calm Calm - N/A   Clear
3:15 AM 52.2 °F 46.2 °F 80% 29.87 in 10.0 mi Calm Calm - N/A   Clear
3:35 AM 52.0 °F 46.9 °F 83% 29.87 in 10.0 mi Calm Calm - N/A   Clear
3:55 AM 52.3 °F 47.3 °F 83% 29.87 in 10.0 mi Calm Calm - N/A   Clear
4:15 AM 54.0 °F 47.3 °F 78% 29.86 in 10.0 mi West 3.5 mph - N/A   Clear
4:35 AM 52.5 °F 48.4 °F 86% 29.86 in 10.0 mi Calm Calm - N/A   Clear
4:55 AM 52.0 °F 47.8 °F 86% 29.88 in 10.0 mi Calm Calm - N/A   Clear
5:15 AM 51.4 °F 46.6 °F 83% 29.88 in 10.0 mi Calm Calm - N/A   Clear
5:35 AM 52.0 °F 46.2 °F 81% 29.88 in 10.0 mi Calm Calm - N/A   Clear
5:55 AM 50.2 °F 47.3 °F 90% 29.89 in 10.0 mi Calm Calm - N/A   Clear
6:15 AM 49.1 °F 46.6 °F 91% 29.89 in 10.0 mi Calm Calm - N/A   Clear
6:35 AM 49.8 °F 47.1 °F 90% 29.89 in 10.0 mi WSW 3.5 mph - N/A   Clear
6:55 AM 50.7 °F 46.9 °F 87% 29.90 in 10.0 mi WSW 3.5 mph - N/A   Clear
7:15 AM 50.5 °F 46.9 °F 87% 29.91 in 10.0 mi Calm Calm - N/A   Clear
7:35 AM 50.2 °F 46.4 °F 87% 29.91 in 10.0 mi Calm Calm - N/A   Clear
7:55 AM 49.8 °F 46.6 °F 89% 29.92 in 10.0 mi Calm Calm - N/A   Clear
8:15 AM 50.5 °F 46.4 °F 86% 29.92 in 10.0 mi Calm Calm - N/A   Clear
8:35 AM 51.1 °F 46.8 °F 85% 29.93 in 10.0 mi Calm Calm - N/A   Clear
8:55 AM 52.9 °F 47.7 °F 82% 29.93 in 10.0 mi Calm Calm - N/A   Clear
9:15 AM 54.9 °F 47.7 °F 77% 29.93 in 10.0 mi Calm Calm - N/A   Clear
9:35 AM 56.8 °F 47.8 °F 72% 29.94 in 10.0 mi Calm Calm - N/A   Clear
9:55 AM 58.5 °F 47.7 °F 67% 29.94 in 10.0 mi Calm Calm - N/A   Clear
10:15 AM 60.3 °F 48.4 °F 65% 29.95 in 10.0 mi Calm Calm - N/A   Clear
10:35 AM 61.7 °F 48.7 °F 62% 29.95 in 10.0 mi WSW 3.5 mph - N/A   Clear
10:55 AM 63.0 °F 49.3 °F 61% 29.95 in 10.0 mi West 3.5 mph - N/A   Clear
11:15 AM 64.9 °F 49.6 °F 58% 29.95 in 10.0 mi Calm Calm - N/A   Clear
11:35 AM 66.7 °F 49.6 °F 54% 29.94 in 10.0 mi NNW 3.5 mph - N/A   Clear
11:55 AM 67.6 °F 48.4 °F 50% 29.94 in 10.0 mi West 5.8 mph - N/A   Clear
12:15 PM 68.5 °F 47.7 °F 47% 29.93 in 10.0 mi SW 5.8 mph - N/A   Clear
12:35 PM 69.4 °F 47.5 °F 45% 29.93 in 10.0 mi West 6.9 mph - N/A   Clear
12:55 PM 70.0 °F 46.4 °F 43% 29.92 in 10.0 mi West 5.8 mph - N/A   Clear
1:15 PM 70.5 °F 46.6 °F 42% 29.92 in 10.0 mi West 4.6 mph - N/A   Clear
1:35 PM 71.1 °F 47.3 °F 43% 29.91 in 10.0 mi West 5.8 mph - N/A   Clear
1:55 PM 72.0 °F 47.3 °F 41% 29.91 in 10.0 mi NNW 6.9 mph - N/A   Clear
2:15 PM 71.8 °F 46.9 °F 41% 29.90 in 10.0 mi West 5.8 mph - N/A   Clear
2:35 PM 72.0 °F 46.9 °F 41% 29.90 in 10.0 mi NW 5.8 mph - N/A   Clear
2:55 PM 72.5 °F 47.3 °F 41% 29.89 in 10.0 mi West 5.8 mph - N/A   Clear
3:15 PM 72.7 °F 47.8 °F 41% 29.89 in 10.0 mi WNW 8.1 mph - N/A   Clear
3:35 PM 73.4 °F 47.1 °F 39% 29.88 in 10.0 mi West 3.5 mph - N/A   Clear
3:55 PM 73.4 °F 47.1 °F 39% 29.88 in 10.0 mi West 3.5 mph - N/A   Clear
4:15 PM 73.9 °F 47.3 °F 39% 29.88 in 10.0 mi WNW 9.2 mph - N/A   Clear
4:35 PM 73.9 °F 47.5 °F 39% 29.88 in 10.0 mi Calm Calm - N/A   Clear
4:55 PM 73.8 °F 47.5 °F 39% 29.88 in 10.0 mi NW 3.5 mph - N/A   Clear
5:15 PM 73.2 °F 46.8 °F 39% 29.88 in 10.0 mi Calm Calm - N/A   Clear
5:35 PM 73.0 °F 47.3 °F 40% 29.88 in 10.0 mi Calm Calm - N/A   Clear
5:55 PM 72.5 °F 47.7 °F 41% 29.89 in 10.0 mi WNW 4.6 mph - N/A   Clear
6:15 PM 71.2 °F 47.1 °F 42% 29.89 in 10.0 mi Calm Calm - N/A   Clear
6:35 PM 69.3 °F 48.2 °F 47% 29.90 in 10.0 mi Calm Calm - N/A   Clear
6:55 PM 66.6 °F 49.1 °F 53% 29.90 in 10.0 mi Calm Calm - N/A   Clear
7:15 PM 63.1 °F 52.0 °F 67% 29.91 in 10.0 mi Calm Calm - N/A   Clear
7:35 PM 60.8 °F 51.3 °F 71% 29.91 in 10.0 mi Calm Calm - N/A   Clear
7:55 PM 59.7 °F 50.9 °F 73% 29.92 in 10.0 mi Calm Calm - N/A   Clear
8:15 PM 58.3 °F 50.7 °F 76% 29.92 in 10.0 mi Calm Calm - N/A   Clear
8:35 PM 57.2 °F 51.6 °F 82% 29.93 in 10.0 mi Calm Calm - N/A   Clear
8:55 PM 56.5 °F 51.6 °F 84% 29.93 in 10.0 mi Calm Calm - N/A   Clear
9:15 PM 55.8 °F 51.6 °F 86% 29.94 in 10.0 mi Calm Calm - N/A   Clear
9:35 PM 55.2 °F 51.6 °F 88% 29.95 in 10.0 mi Calm Calm - N/A   Clear
9:55 PM 54.5 °F 52.0 °F 91% 29.95 in 10.0 mi Calm Calm - N/A   Clear
10:15 PM 54.3 °F 51.6 °F 91% 29.96 in 10.0 mi Calm Calm - N/A   Clear
10:35 PM 54.1 °F 51.8 °F 92% 29.96 in 10.0 mi Calm Calm - N/A   Clear
10:55 PM 53.8 °F 52.0 °F 94% 29.97 in 10.0 mi Calm Calm - N/A   Clear
11:15 PM 53.4 °F 50.4 °F 89% 29.97 in 10.0 mi Calm Calm - N/A   Clear
11:35 PM 53.2 °F 50.5 °F 91% 29.98 in 10.0 mi Calm Calm - N/A   Clear
11:55 PM 52.9 °F 50.0 °F 90% 29.99 in 10.0 mi Calm Calm - N/A   Clear